This demonstration page uses our WeatherBlox Daily Observations layout. Learn more.

Left ArrowRight Arrow

39.08367, -84.50855

Hourly Observations for April 1, 2022

Temp ( °F °C ) Dew Point ( °F °C ) Humidity (%) Winds ( mph kmh ) Pressure ( in mb ) Visibility ( mi km ) Precip ( " mm )
12:38 am 00:38 Cloudy with Light Rain 39 3.9 36 2.2 89 89 SW 9 15 29.81 1009 10 16 0.00 0.00
12:53 am 00:53 Cloudy with Light Rain 39 3.9 36 2.2 89 89 SW 8 13 29.79 1009 10 16 0.00 0.00
1:53 am 01:53 Cloudy with Light Rain 39 3.9 36 2.2 89 89 WSW 10 17 29.80 1009 10 16 0.01 0.25
2:38 am 02:38 Cloudy with Light Rain 37 2.8 36 2.2 96 96 WSW 9 15 29.82 1010 10 16 0.01 0.25
2:53 am 02:53 Cloudy 38 3.3 36 2.2 93 93 WSW 10 17 29.80 1009 10 16 0.01 0.25
3:53 am 03:53 Cloudy 38 3.3 34 1.1 86 86 WSW 12 19 29.81 1010 10 16 0.00 0.00
4:06 am 04:06 Cloudy 38 3.3 34 1.1 86 86 WSW 10 17 29.83 1010 10 16 0.00 0.00
4:42 am 04:42 Cloudy with Light Rain 38 3.3 34 1.1 86 86 WSW 10 17 29.84 1011 10 16 0.01 0.25
4:53 am 04:53 Cloudy with Light Rain 38 3.3 34 1.1 86 86 WSW 13 20 29.82 1010 10 16 0.01 0.25
5:09 am 05:09 Cloudy with Light Rain 37 2.8 33 0.6 86 86 W 15 24 29.84 1011 8 13 0.00 0.00
5:16 am 05:16 Cloudy 37 2.8 33 0.6 86 86 W 8 13 29.85 1011 10 16 0.00 0.00
5:53 am 05:53 Cloudy 37 2.8 34 1.1 89 89 W 12 19 29.85 1011 10 16 0.00 0.00
6:18 am 06:18 Cloudy with Light Rain 37 2.8 34 1.1 89 89 W 12 19 29.87 1012 5 8 0.00 0.00
6:35 am 06:35 Cloudy 37 2.8 34 1.1 89 89 W 13 20 29.88 1012 10 16 0.01 0.25
6:46 am 06:46 Cloudy with Rain 37 2.8 34 1.1 89 89 W 15 24 29.89 1012 5 8 0.01 0.25
6:53 am 06:53 Cloudy with Light Rain 36 2.2 34 1.1 93 93 WSW 20 31 29.88 1012 5 8 0.01 0.25
7:25 am 07:25 Cloudy 37 2.8 33 0.6 86 86 W 13 20 29.92 1013 10 16 0.01 0.25
7:53 am 07:53 Cloudy 36 2.2 32 0 86 86 W 10 17 29.92 1013 10 16 0.01 0.25
8:53 am 08:53 Cloudy 37 2.8 32 0 82 82 W 17 28 29.96 1015 10 16 0.00 0.00
9:53 am 09:53 Cloudy 38 3.3 29 -1.7 70 70 W 20 31 30.00 1016 10 16 0.00 0.00
10:53 am 10:53 Cloudy 39 3.9 29 -1.7 67 67 W 12 19 30.03 1017 10 16 0.00 0.00
11:53 am 11:53 Cloudy 41 5 29 -1.7 62 62 W 12 19 30.05 1018 10 16 0.00 0.00
12:53 pm 12:53 Mostly Cloudy 44 6.7 27 -2.8 51 51 W 13 20 30.07 1018 10 16 0.00 0.00
1:53 pm 13:53 Cloudy 42 5.6 27 -2.8 55 55 W 14 22 30.10 1019 10 16 0.00 0.00
2:53 pm 14:53 Cloudy 43 6.1 28 -2.2 56 56 W 12 19 30.11 1020 10 16 0.00 0.00
3:53 pm 15:53 Cloudy 43 6.1 26 -3.3 51 51 WNW 13 20 30.11 1020 10 16 0.00 0.00
4:53 pm 16:53 Cloudy 43 6.1 26 -3.3 51 51 WNW 15 24 30.13 1020 10 16 0.00 0.00
5:53 pm 17:53 Cloudy 43 6.1 26 -3.3 51 51 W 12 19 30.15 1021 10 16 0.00 0.00
6:53 pm 18:53 Partly Cloudy 43 6.1 25 -3.9 49 49 VRB 6 9 30.16 1021 10 16 0.00 0.00
7:53 pm 19:53 Mostly Sunny 41 5 23 -5 49 49 WNW 3 6 30.17 1022 10 16 0.00 0.00
8:53 pm 20:53 Partly Cloudy 37 2.8 29 -1.7 73 73 Calm 30.19 1022 10 16 0.00 0.00
9:53 pm 21:53 Cloudy 37 2.8 28 -2.2 70 70 Calm 30.19 1023 10 16 0.00 0.00
10:53 pm 22:53 Clear 33 0.6 29 -1.7 85 85 Calm 30.20 1023 10 16 0.00 0.00
11:53 pm 23:53 Clear 31 -0.6 27 -2.8 85 85 ENE 3 6 30.21 1023 10 16 0.00 0.00

Powered by AerisWeather